RH
76 77 77 76 81 88 89 94 98 90 88 82 73 62 48 38 34 31 31 34 35 34 34 33 32 28 32 39 42 43 45 47 47 47 48 47 47 47 48 51 54 60 62
79 77 83 76 78 90 83 89 93 99 91 85 79 66 54 42 34 31 30 35 34 33 34 31 32 33 38 42 44 46 48 48 47 52 58 62 70 68 66 65 70 73 75
79 81 86 76 75 82 87 90 90 93 97 91 87 78 67 55 46 37 31 32 32 32 34 32 33 38 44 45 47 49 47 48 54 60 72 80 80 78 78 78 80 78 78
81 78 78 78 80 82 83 84 99 92 99 91 92 81 70 61 50 44 38 33 33 34 35 35 36 41 45 48 49 46 49 58 70 76 80 80 82 87 82 81 81 79 79
86 78 75 78 79 80 82 87 89 98 87 96 92 84 79 71 65 57 52 43 38 36 36 37 39 43 45 47 49 56 62 70 78 84 86 81 76 79 80 79 80 78 80
83 78 78 80 72 80 90 81 90 93 99 98 94 89 83 83 78 67 54 52 46 44 46 49 51 52 54 59 64 68 75 79 84 82 82 82 80 74 73 66 69 74 72
85 79 79 85 89 83 86 78 90 85 90 97 98 90 96 88 85 79 65 56 55 53 55 57 60 63 67 71 76 83 87 87 89 88 82 80 77 73 66 60 65 54 62
86 80 83 83 77 82 81 86 91 89 90 94 89 92 89 90 91 96 86 68 59 60 62 65 69 74 79 85 87 90 89 88 88 84 84 82 73 64 58 59 67 61 63
88 82 82 78 74 74 76 87 88 88 89 89 86 93 95 93 96 98 98 89 76 71 70 76 81 83 86 87 91 91 90 89 88 91 95 69 63 57 60 64 68 69 71
96 86 85 79 79 77 80 84 86 82 82 78 85 88 88 89 90 97 94 98 95 90 88 93 89 90 91 92 92 88 90 90 92 93 72 59 54 60 63 66 66 68 68
88 93 92 90 85 78 77 74 77 83 86 90 84 85 88 87 84 93 95 91 99 97 93 91 94 92 91 92 90 88 94 92 69 63 58 56 60 66 67 66 64 62 62
97 98 98 93 90 87 85 81 76 75 78 81 82 85 89 90 86 88 88 90 89 89 88 89 89 91 94 96 88 79 71 66 63 61 63 65 68 69 63 56 57 50 44
97 95 94 96 94 91 87 84 76 74 73 79 79 82 84 83 85 86 89 88 87 88 90 92 90 90 87 82 77 70 68 64 65 66 66 67 68 60 55 48 43 38 37
97 96 98 97 95 92 84 80 81 75 72 70 70 77 80 83 83 83 87 85 83 83 76 73 75 70 64 63 63 64 65 65 63 62 61 55 49 44 42 41 39 35 33
90 96 98 95 88 89 88 86 81 74 73 70 70 70 72 78 75 71 68 67 68 67 64 62 64 64 65 67 67 67 67 63 61 59 54 50 44 41 39 37 35 35 35
82 85 89 92 92 88 84 79 78 77 72 67 69 68 70 72 74 72 70 65 64 67 64 64 63 62 64 63 61 60 60 56 51 47 44 43 39 38 37 36 36 35 31
74 72 72 72 84 90 91 88 82 77 74 70 65 68 68 71 72 74 74 69 63 65 64 61 61 58 58 60 56 50 46 44 44 45 44 41 40 39 38 37 37 34 34
53 56 58 59 61 65 74 79 82 78 73 70 68 70 68 67 66 65 66 66 64 67 63 62 61 60 60 58 54 48 47 47 48 46 45 43 42 42 40 39 38 40 39
43 43 48 55 57 58 61 63 69 73 71 70 68 67 63 61 64 67 64 65 64 66 65 62 61 62 62 62 58 53 51 51 49 47 46 45 44 42 43 45 45 45 45
55 50 45 44 50 54 56 60 64 66 69 72 67 66 65 64 64 62 59 60 61 65 62 64 65 66 64 62 57 55 54 52 52 51 49 48 47 46 47 49 50 48 49
58 60 60 55 51 50 52 57 60 63 64 65 66 66 67 67 64 60 59 58 58 60 63 70 70 69 66 62 60 60 58 57 58 54 51 50 51 51 53 53 54 51 51
58 58 61 63 66 72 72 68 66 64 62 65 66 65 66 64 64 63 62 60 61 64 65 66 66 66 67 66 64 66 63 60 59 57 57 56 57 59 58 57 60 55 55
55 55 58 60 62 64 66 64 66 68 72 74 72 70 67 67 69 72 72 71 71 72 72 72 72 69 68 70 68 65 66 64 64 62 62 62 65 64 63 63 61 60 60
54 57 60 63 66 67 70 71 73 72 74 76 80 82 81 83 82 80 82 82 81 79 77 75 75 76 73 75 75 71 67 70 68 68 67 67 67 67 69 70 67 62 63
55 58 59 60 62 66 71 74 75 76 77 77 79 86 90 90 90 89 88 85 84 84 84 83 80 79 81 81 80 81 79 79 76 69 67 70 71 71 73 73 69 67 64
61 64 65 66 69 72 75 75 77 82 85 90 94 94 94 93 95 95 94 95 96 95 93 93 92 92 92 89 89 87 87 85 79 79 77 74 72 73 70 74 70 68 65